This is the latest recevied weather packets stored in our database for station/object AK4NG. If no packets are shown the sender has not sent any weather packets the latest 10 day(s).
| Time | Temp. | Humidity | Pressure | Rain* | Wind** | Luminosity | Snow |
|---|---|---|---|---|---|---|---|
| 1778194755 | 22.78° C | 79% | 1014.1 hPa | 0 mm | - | 127 W/m² | - |
| 1778194451 | 22.22° C | 79% | 1014.4 hPa | 0 mm | - | 140 W/m² | - |
| 1778194147 | 22.22° C | 79% | 1014.3 hPa | 0 mm | - | 163 W/m² | - |
| 1778193843 | 22.22° C | 78% | 1014.2 hPa | 0 mm | - | 140 W/m² | - |
| 1778193540 | 22.78° C | 79% | 1014.4 hPa | 0 mm | - | 145 W/m² | - |
| 1778193236 | 22.78° C | 78% | 1014.2 hPa | 0 mm | - | 151 W/m² | - |
| 1778192934 | 22.78° C | 79% | 1014.1 hPa | 0 mm | - | 144 W/m² | - |
| 1778192629 | 22.78° C | 77% | 1014 hPa | 0 mm | - | 143 W/m² | - |
| 1778192327 | 23.33° C | 77% | 1014 hPa | 0 mm | - | 150 W/m² | - |
| 1778192023 | 23.33° C | 78% | 1014.1 hPa | 0 mm | - | 213 W/m² | - |
| 1778191719 | 22.78° C | 77% | 1014.2 hPa | 0 mm | - | 176 W/m² | - |
| 1778191418 | 23.33° C | 75% | 1014.1 hPa | 0 mm | - | 175 W/m² | - |
| 1778191113 | 23.33° C | 77% | 1014 hPa | 0 mm | - | 201 W/m² | - |
| 1778190811 | 23.89° C | 77% | 1013.9 hPa | 0 mm | - | 254 W/m² | - |
| 1778190508 | 23.33° C | 77% | 1014 hPa | 0 mm | - | 261 W/m² | - |
| 1778190200 | 23.33° C | 79% | 1014 hPa | 0 mm | - | 229 W/m² | - |
| 1778189900 | 23.33° C | 77% | 1013.8 hPa | 0 mm | - | 199 W/m² | - |
| 1778189597 | 23.33° C | 76% | 1013.7 hPa | 0 mm | - | 248 W/m² | - |
| 1778189294 | 23.33° C | 78% | 1014 hPa | 0 mm | - | 196 W/m² | - |
| 1778188990 | 23.33° C | 77% | 1014.1 hPa | 0 mm | - | 152 W/m² | - |
| 1778188687 | 23.89° C | 77% | 1014 hPa | 0 mm | - | 148 W/m² | - |
| 1778188383 | 23.89° C | 76% | 1014 hPa | 0 mm | - | 155 W/m² | - |
| 1778188080 | 23.89° C | 74% | 1013.8 hPa | 0 mm | - | 226 W/m² | - |
| 1778187777 | 24.44° C | 73% | 1014 hPa | 0 mm | - | 300 W/m² | - |
| 1778187473 | 25° C | 74% | 1013.9 hPa | 0 mm | - | 284 W/m² | - |
* Rain latest hour (hover to see other rain measurements)
** Current wind speed in m/s (hover to see current wind gust speed)